KE5KZS Weather Reports


Display with metric or nautical units.
time (UTC)temp
F
wind
direction
speed
MPH
gust
MPH
rain 1hr
in
rain 24hr
in
rain mn
in
humidity
%
barometer
mb
20260903130517 79 113 2.0 6.0 0.00 0.00 0.00 82 1012.2
20260903125537 78 135 2.0 5.0 0.00 0.00 0.00 82 1012.1
20260903124517 78 135 2.0 4.0 0.00 0.00 0.00 83 1012.0
20260903123516 77 135 1.0 3.0 0.00 0.00 0.00 83 1011.9
20260903122516 77 135 1.0 3.0 0.00 0.00 0.00 83 1011.9
20260903121517 77 0.0 2.0 0.00 0.00 0.00 82 1011.7
20260903120557 77 0.0 2.0 0.00 0.00 0.00 82 1011.7
20260903115517 77 135 1.0 2.0 0.00 0.00 0.00 82 1011.9
20260903114516 77 135 1.0 3.0 0.00 0.00 0.00 83 1011.9
20260903113536 77 135 1.0 4.0 0.00 0.00 0.00 83 1011.8
20260903112517 77 135 1.0 3.0 0.00 0.00 0.00 83 1011.9
20260903111517 77 0.0 3.0 0.00 0.00 0.00 83 1011.7
20260903110517 77 135 1.0 2.0 0.00 0.00 0.00 83 1011.6
20260903105516 77 0.0 0.0 0.00 0.00 0.00 83 1011.5
20260903104516 77 135 1.0 3.0 0.00 0.00 0.00 83 1011.4
20260903103517 77 0.0 0.0 0.00 0.00 0.00 83 1011.3
20260903102536 77 0.0 0.0 0.00 0.00 0.00 82 1011.4
20260903101516 77 0.0 0.0 0.00 0.00 0.00 82 1011.5
20260903100516 77 0.0 1.0 0.00 0.00 0.00 82 1011.4
20260903095517 78 0.0 2.0 0.00 0.00 0.00 82 1011.5
20260903094516 78 0.0 2.0 0.00 0.00 0.00 82 1011.5
20260903093516 78 0.0 2.0 0.00 0.00 0.00 81 1011.4
20260903092537 78 135 1.0 2.0 0.00 0.00 0.00 81 1011.5
20260903091537 78 135 1.0 4.0 0.00 0.00 0.00 81 1011.4
20260903090516 78 135 1.0 2.0 0.00 0.00 0.00 81 1011.6
20260903085517 78 113 1.0 3.0 0.00 0.00 0.00 81 1011.5
20260903084516 78 0.0 0.0 0.00 0.00 0.00 81 1011.5
20260903083517 78 0.0 0.0 0.00 0.00 0.00 80 1011.5
20260903082517 79 113 1.0 3.0 0.00 0.00 0.00 80 1011.4
20260903081516 79 113 1.0 3.0 0.00 0.00 0.00 80 1011.5
20260903080537 79 113 1.0 3.0 0.00 0.00 0.00 80 1011.5
20260903075516 79 113 2.0 4.0 0.00 0.00 0.00 79 1011.5
20260903074517 79 113 1.0 4.0 0.00 0.00 0.00 79 1011.6
20260903073536 79 113 1.0 2.0 0.00 0.00 0.00 78 1011.5
20260903072540 80 113 1.0 2.0 0.00 0.00 0.00 77 1011.4
20260903072016 80 113 1.0 4.0 0.00 0.00 0.00 77 1011.5
20260903071017 80 113 1.0 3.0 0.00 0.00 0.00 77 1011.5
20260903070016 80 113 1.0 3.0 0.00 0.00 0.00 76 1011.6
20260903065016 81 113 2.0 5.0 0.00 0.00 0.00 75 1011.8
20260903064017 81 113 2.0 6.0 0.00 0.00 0.00 75 1011.8
20260903063016 81 135 2.0 4.0 0.00 0.00 0.00 74 1011.8
20260903062017 82 113 2.0 6.0 0.00 0.00 0.00 73 1011.8
20260903061016 82 135 2.0 6.0 0.00 0.00 0.00 72 1011.9
20260903060016 82 113 3.0 7.0 0.00 0.00 0.00 72 1012.0
20260903055017 83 113 3.0 10.0 0.00 0.00 0.00 71 1011.9
20260903054016 83 135 3.0 8.0 0.00 0.00 0.00 71 1011.9
20260903053016 83 113 2.0 6.0 0.00 0.00 0.00 70 1011.8
20260903052016 84 113 3.0 7.0 0.00 0.00 0.00 69 1011.9
20260903051016 84 135 3.0 8.0 0.00 0.00 0.00 68 1011.9
20260903050036 84 113 2.0 4.0 0.00 0.00 0.00 68 1011.8
20260903045017 84 113 2.0 4.0 0.00 0.00 0.00 67 1011.9
20260903044037 85 113 4.0 8.0 0.00 0.00 0.00 66 1011.8
20260903043017 85 113 4.0 8.0 0.00 0.00 0.00 65 1011.8
20260903042017 85 135 4.0 10.0 0.00 0.00 0.00 64 1011.9
20260903041017 86 113 3.0 11.0 0.00 0.00 0.00 64 1012.0
20260903040017 86 90 2.0 6.0 0.00 0.00 0.00 63 1011.9
20260903035017 87 113 4.0 12.0 0.00 0.00 0.00 62 1011.8
20260903034017 88 113 5.0 11.0 0.00 0.00 0.00 62 1011.8
20260903033017 88 113 4.0 8.0 0.00 0.00 0.00 61 1011.7
20260903032017 89 135 5.0 9.0 0.00 0.00 0.00 60 1011.7
20260903031017 89 113 4.0 11.0 0.00 0.00 0.00 58 1011.7
20260903030017 90 113 5.0 10.0 0.00 0.00 0.00 57 1011.5
20260903025017 90 135 2.0 8.0 0.00 0.00 0.00 56 1011.3
20260903024017 90 113 2.0 7.0 0.00 0.00 0.00 56 1011.1
20260903023017 91 113 3.0 9.0 0.00 0.00 0.00 56 1011.0
20260903022017 91 113 4.0 8.0 0.00 0.00 0.00 56 1010.8
20260903021017 91 113 4.0 7.0 0.00 0.00 0.00 56 1010.6
20260903020017 91 113 3.0 9.0 0.00 0.00 0.00 56 1010.5
20260903015017 92 90 4.0 9.0 0.00 0.00 0.00 56 1010.4
20260903014017 92 90 3.0 9.0 0.00 0.00 0.00 55 1010.3
20260903013038 92 113 4.0 11.0 0.00 0.00 0.00 55 1010.3
20260903012017 92 113 3.0 9.0 0.00 0.00 0.00 55 1010.1
20260903011017 92 113 2.0 7.0 0.00 0.00 0.00 55 1010.2
20260903010017 93 113 4.0 12.0 0.00 0.00 0.00 54 1010.1
20260903005017 93 113 3.0 9.0 0.00 0.00 0.00 53 1010.1
20260903004017 94 113 5.0 11.0 0.00 0.00 0.00 52 1010.1
20260903003017 95 113 6.0 13.0 0.00 0.00 0.00 51 1010.0
20260903002017 96 90 4.0 10.0 0.00 0.00 0.00 49 1010.0
20260903001017 96 90 3.0 8.0 0.00 0.00 0.00 46 1009.8
20260903000017 97 113 3.0 9.0 0.00 0.00 0.00 45 1009.9
20260902235037 97 113 2.0 4.0 0.00 0.00 0.00 45 1009.8
20260902234015 97 113 2.0 4.0 0.00 0.00 0.00 45 1009.9
20260902233017 98 45 4.0 10.0 0.00 0.00 0.00 44 1010.0
20260902232017 98 68 3.0 7.0 0.00 0.00 0.00 44 1009.8
20260902231017 98 90 3.0 8.0 0.00 0.00 0.00 44 1009.7
20260902230017 98 45 2.0 5.0 0.00 0.00 0.00 45 1009.7
20260902225017 98 68 3.0 8.0 0.00 0.00 0.00 44 1009.8
20260902224017 98 90 2.0 4.0 0.00 0.00 0.00 44 1009.9
20260902223017 98 113 2.0 6.0 0.00 0.00 0.00 44 1010.0
20260902222017 99 45 3.0 10.0 0.00 0.00 0.00 43 1010.0
20260902221017 99 113 4.0 9.0 0.00 0.00 0.00 44 1010.1
20260902220037 99 90 3.0 8.0 0.00 0.00 0.00 44 1010.4
20260902215017 99 135 2.0 6.0 0.00 0.00 0.00 43 1010.4
20260902214017 99 135 3.0 8.0 0.00 0.00 0.00 43 1010.6
20260902213037 100 90 2.0 8.0 0.00 0.00 0.00 43 1010.5
20260902212017 99 113 3.0 10.0 0.00 0.00 0.00 41 1010.7
20260902211037 99 68 2.0 6.0 0.00 0.00 0.00 41 1010.7
20260902210017 99 90 2.0 9.0 0.00 0.00 0.00 42 1010.8
20260902205017 100 113 4.0 12.0 0.00 0.00 0.00 42 1011.0
20260902204017 100 23 4.0 8.0 0.00 0.00 0.00 42 1011.2
20260902203017 100 90 3.0 6.0 0.00 0.00 0.00 43 1011.4
20260902202017 100 68 3.0 8.0 0.00 0.00 0.00 44 1011.6
20260902201017 100 135 4.0 8.0 0.00 0.00 0.00 44 1011.6
20260902200017 99 23 3.0 9.0 0.00 0.00 0.00 43 1011.8
20260902195017 100 23 2.0 5.0 0.00 0.00 0.00 42 1011.8
20260902194017 100 113 3.0 9.0 0.00 0.00 0.00 43 1012.0
20260902193017 101 113 4.0 9.0 0.00 0.00 0.00 44 1012.1
20260902192017 100 23 2.0 6.0 0.00 0.00 0.00 45 1012.5
20260902191017 100 90 2.0 5.0 0.00 0.00 0.00 45 1012.6
20260902190037 100 113 3.0 10.0 0.00 0.00 0.00 46 1012.7
20260902185017 100 135 2.0 5.0 0.00 0.00 0.00 46 1012.8
20260902184057 100 135 2.0 4.0 0.00 0.00 0.00 48 1012.9
20260902183017 99 135 4.0 9.0 0.00 0.00 0.00 47 1013.1
20260902182017 99 113 2.0 7.0 0.00 0.00 0.00 48 1013.5
20260902181017 98 135 3.0 9.0 0.00 0.00 0.00 49 1013.7
20260902180017 97 90 3.0 6.0 0.00 0.00 0.00 49 1013.8
20260902175037 98 90 2.0 8.0 0.00 0.00 0.00 49 1014.1
20260902174017 98 203 3.0 8.0 0.00 0.00 0.00 49 1014.1
20260902173017 97 113 4.0 7.0 0.00 0.00 0.00 49 1014.3
20260902172017 96 113 3.0 8.0 0.00 0.00 0.00 50 1014.3
20260902171017 96 135 2.0 4.0 0.00 0.00 0.00 50 1014.5
20260902170017 95 135 2.0 8.0 0.00 0.00 0.00 52 1014.5
20260902165037 95 113 2.0 6.0 0.00 0.00 0.00 53 1014.7
20260902164017 95 68 2.0 7.0 0.00 0.00 0.00 54 1014.7
20260902163017 95 113 2.0 5.0 0.00 0.00 0.00 54 1014.8
20260902162037 95 113 2.0 4.0 0.00 0.00 0.00 53 1014.9
20260902161037 94 90 2.0 8.0 0.00 0.00 0.00 55 1014.9
20260902160037 94 158 2.0 5.0 0.00 0.00 0.00 54 1015.0
20260902155017 93 135 2.0 8.0 0.00 0.00 0.00 54 1014.9
20260902154017 93 113 2.0 6.0 0.00 0.00 0.00 55 1015.0
20260902153017 92 158 2.0 6.0 0.00 0.00 0.00 57 1014.8
20260902152017 92 90 2.0 6.0 0.00 0.00 0.00 59 1014.9
20260902151017 92 203 2.0 6.0 0.00 0.00 0.00 59 1014.7
20260902150017 91 135 2.0 4.0 0.00 0.00 0.00 60 1014.7
20260902145017 90 113 3.0 5.0 0.00 0.00 0.00 61 1014.7
20260902144037 89 135 2.0 4.0 0.00 0.00 0.00 62 1014.7
20260902143017 89 135 2.0 4.0 0.00 0.00 0.00 63 1014.8
20260902142057 88 158 2.0 7.0 0.00 0.00 0.00 64 1014.8
20260902141017 88 158 3.0 7.0 0.00 0.00 0.00 65 1014.9
20260902140017 87 135 3.0 7.0 0.00 0.00 0.00 66 1014.8
20260902135017 86 158 4.0 9.0 0.00 0.00 0.00 66 1014.8
20260902134017 86 158 3.0 6.0 0.00 0.00 0.00 67 1014.7
20260902133017 85 135 2.0 4.0 0.00 0.00 0.00 69 1014.6
20260902132017 84 113 1.0 3.0 0.00 0.00 0.00 71 1014.6